Home > Weather > Vienna > Past weeks

Flag for Austria Weather for the Past 2 Weeks in Vienna, Vienna, Austria

Now
42 °F

Overcast.


Feels Like: 40 °F
Forecast: 40 / 48 °F
Wind: 3 mph from Southeast

Location: Wien / Hohe Warte

Current Time: Feb 14, 2016 at 2:29:44 PM

Latest Report: Feb 14, 2016 at 1:00 PM


Visibility: 9 mi

Pressure: 29.32 "Hg

Humidity: 82%

Dew point: 37 °F

Location of ViennaLocation

Historic Weather in Vienna — Graph

°F

Vienna Temperature Yesterday

Maximum temperature yesterday: 46 °F (at 2:00 PM)
Minimum temperature yesterday: 37 °F (at 8:00 AM)
Average temperature yesterday: 40 °F

High & Low Weather Summary for the Past Weeks

 TemperatureHumidityPressure
High56 °F (Feb 7, 3:00 PM)98% (Jan 30, 6:00 PM)30.39 "Hg (Jan 30, 6:00 PM)
Low31 °F (Feb 12, 7:00 AM)46% (Feb 7, 3:00 PM)29.26 "Hg (Feb 10, 12:00 AM)
Average43 °F75%29.84 "Hg
* Reported Jan 30 4:00 PM — Feb 14 1:00 PM, Vienna, Weather by CustomWeather, © 2016

Note: Actual official high and low records may vary slightly from our data, if they occured in-between our weather recording intervals... More about our weather records

Advertising

Vienna Weather History for the Previous 24 Hours

 ConditionsComfort  
Time TempWeatherWind HumidityBarometerVisibility
1:00 PM
Sun, Feb 14
42 °FOvercast.3 mph82%29.32 "Hg9 mi
12:00 PM38 °FLow clouds.2 mph90%29.35 "Hg6 mi
11:00 AM37 °FLow clouds.3 mph92%29.35 "Hg5 mi
10:00 AM36 °FFog.2 mph94%29.35 "Hg5 mi
9:00 AM35 °FFog.3 mph98%29.35 "Hg1 mi
8:00 AM35 °FFog.3 mph98%29.35 "Hg1 mi
7:00 AM35 °FFog.2 mph97%29.35 "Hg1 mi
6:00 AM36 °FFog.1 mph96%29.35 "Hg1 mi
9:00 PM
Sat, Feb 13
38 °FPassing clouds.2 mph88%29.35 "Hg11 mi
8:00 PM40 °FOvercast.2 mph81%29.35 "Hg17 mi
7:00 PM41 °FOvercast.5 mph75%29.38 "Hg19 mi
6:00 PM42 °FOvercast.3 mph72%29.38 "Hg16 mi
5:00 PM42 °FScattered clouds.3 mph70%29.35 "Hg25 mi
4:00 PM45 °FPassing clouds.3 mph61%29.35 "Hg25 mi
3:00 PM45 °FPassing clouds.2 mph61%29.35 "Hg25 mi
2:00 PM46 °FPassing clouds.2 mph62%29.35 "Hg22 mi
Weather by CustomWeather, © 2016

See weather overviewHow to use our weather pages